{"data":{"norad_id":58715,"epoch":"2026-09-20T14:24:40.378176Z","epoch_age_seconds":141040,"freshness":"FRESH","line1":"1 58715U 24002L   26263.60046734  .00002194  00000+0  76085-4 0  9998","line2":"2 58715  53.1618  41.2842 0001250  77.1863 282.9279 15.34389167151905","mean_motion":15.34389167,"eccentricity":0.000125,"inclination_deg":53.1618,"raan_deg":41.2842,"arg_perigee_deg":77.1863,"mean_anomaly_deg":282.9279,"bstar":7.6085e-5,"rev_number":15190,"period_min":93.848420659503,"perigee_km":461.8803293007,"apogee_km":463.59054741029,"semimajor_km":6840.8724383555,"source":"CELESTRAK","updated_at":"2026-09-21T09:00:33.948999Z"}}